Weather in Upravlenchesky

Russia / Samara Oblast     53˚20′53″N   50˚12′55″E
temp.,
°C
wind,
m/s
gust,
m/s
humid.,
%
clouds,
%
prec.,
mm/h
press.,
hPa
HPBL,
m
17 january, sun
sun1701:00−9˚sw61393100 0.6 1004645
04:00−12˚sw61393100 0.9 1006631
07:00−14˚wsw61294100 0.4 1007593
10:00−15˚wsw51193100 0.7 1009557
13:00−15˚wsw4892100 0.0 1011456
16:00−16˚wsw369597 0.0 1013180
19:00−20˚wsw229824 0.0 101520
22:00−22˚w119820 0.0 101720
18 january, mon
mon1801:00−22˚nne119793 0.0 101820
04:00−22˚ene119597 0.0 101920
07:00−22˚ne229598 0.0 101923
10:00−21˚ne239599 0.0 102069
13:00−18˚ne2392100 0.0 1019231
16:00−18˚ne3593100 0.0 1018246
19:00−17˚ne4794100 0.2 1017269
22:00−17˚nne4796100 1.3 1016273
19 january, tue
tue1901:00−16˚nne3796100 1.9 1014274
04:00−15˚nne4895100 4.5 1013316
07:00−15˚n4795100 1.6 1012303
10:00−15˚nnw4793100 2.2 1012260
13:00−14˚nw2493100 0.0 1012323
16:00−15˚nw2294100 0.1 101281
19:00−19˚wnw2296100 0.0 101329
22:00−22˚w229782 0.0 101320
20 january, wed
wed2001:00−23˚wsw23980 0.0 101529
04:00−24˚wsw23992 0.0 101621
07:00−25˚wsw2310033 0.0 101635
10:00−23˚wsw269763 0.0 1017152
13:00−20˚wsw369596 0.0 1017312
16:00−21˚wsw379598 0.0 1017296
19:00−22˚wsw3797100 0.1 1019256
22:00−21˚wsw3697100 0.2 1020233
21 january, thu
thu2101:00−23˚wsw239995 0.0 102052
04:00−23˚wsw359872 0.0 102082
07:00−21˚wsw369885 0.0 1021167
10:00−20˚wsw369888 0.1 1021162
13:00−15˚wsw379595 0.0 1021282
16:00−13˚wsw489497 0.0 1020345
19:00−15˚wsw3796100 0.0 1021195
22:00−16˚wsw389698 0.0 1021200